Location: Piolenc
(44.1794°N, 4.7641°E)
Time: 04:38:25
(UTC+00:00)

ADEOS - Pass Details

Date: 27 January 2021
Orbit: 792 x 794 km, 98.9° (Epoch: 27 February)

Event Time Altitude Azimuth Distance (km) Brightness Sun altitude
Rises 04:37:07 0° 13° (NNE) 3,303 6.9 -26.3°
Reaches altitude 10° 04:39:27 10° 13° (NNE) 2,369 6.1 -25.9°
Maximum altitude 04:44:41 84° 287° (WNW) 803 3.4 -24.9°
Enters shadow 04:47:40 26° 200° (SSW) 1,501 4.8 -24.4°
